Regional Weather Roundup
Issued by NWS Cleveland, OH

Home | Current Version | Previous Version | Text Only | Print | Product List | Glossary Off
Versions: 1 2 3 4 5 6 7 8 9 10 11 12 13 14 15 16 17 18 19 20 21 22 23 24 25 26 27 28 29 30 31 32 33 34 35 36 37 38 39 40 41 42 43 44 45 46 47 48 49 50

000
ASUS41 KCLE 200800
RWRCLE
OHIO REGIONAL WEATHER ROUNDUP
NATIONAL WEATHER SERVICE WILMINGTON, OH
400 AM EDT MON OCT 20 2014

NOTE: "FAIR" INDICATES FEW OR NO CLOUDS BELOW 12,000 FEET WITH NO
SIGNIFICANT WEATHER AND/OR OBSTRUCTIONS TO VISIBILITY.

OHZ001>008-015>018-024>027-034-035-043-044-200900-
   NORTHWEST OHIO

CITY           SKY/WX    TMP DP  RH WIND       PRES   REMARKS
DEFIANCE       CLOUDY    48  41  76 S8        29.95F
FINDLAY        CLOUDY    47  42  83 S7        29.97F
TOLEDO EXPRESS CLOUDY    48  39  71 S7        29.94F
TOLEDO METCALF CLOUDY    49  39  68 SW10      29.96F
LIMA           CLOUDY    48  41  76 SW8       29.98F
$$

OHZ009>014-019>023-028>033-038-089-200900-
   NORTHEAST OHIO

CITY           SKY/WX    TMP DP  RH WIND       PRES   REMARKS
CLE-HOPKINS    CLOUDY    47  36  65 S8        30.01F
CLE-LAKEFRONT  CLOUDY    49  36  61 S10       29.99F
CUY CO. ARPT   NOT AVBL
LORAIN-ELYRIA  CLOUDY    47  37  68 SW7       29.99F
ASHTABULA      CLOUDY    42  36  79 S7        30.01F
AKRON-CANTON   CLOUDY    46  36  68 SW7       30.02S
WOOSTER        NOT AVBL
MANSFIELD      CLOUDY    46  38  73 S5        30.00F
YOUNGSTOWN     CLOUDY    44  36  73 S5        30.02S
$$

OHZ042-051>053-060>062-070>072-077>081-200900-
  SOUTHWEST OHIO

CITY           SKY/WX    TMP DP  RH WIND       PRES   REMARKS
CINC-COVINGTON CLOUDY    46  41  82 SW3       30.04S
CINC-LUNKEN    CLOUDY    43  42  97 CALM      30.06S
HAMILTON       CLOUDY    43  42  97 CALM      30.05S
DAYTON         NOT AVBL
WRIGHT-PAT AFB CLOUDY    45  40  83 S5        30.02F
DAYTON GENERAL CLOUDY    45  41  86 S6        30.02F
WILMINGTON     CLOUDY    45  40  82 S3        30.03S
$$

OHZ036-037-039>041-045>050-054>059-063>069-073>076-082>088-200900-
  CENTRAL AND SOUTHEAST OHIO

CITY           SKY/WX    TMP DP  RH WIND       PRES   REMARKS
COLUMBUS       CLOUDY    44  38  79 CALM      30.03S
OSU AIRPORT    CLOUDY    45  39  79 CALM      30.03S
BOLTON FIELD   NOT AVBL
RICKENBACK AFB NOT AVBL
NEWARK         CLOUDY    40  37  89 CALM      30.03F
MARION         CLOUDY    47  38  71 S8        30.00F
LANCASTER      CLOUDY    42  39  89 CALM      30.04S
ZANESVILLE     CLOUDY    40  36  86 CALM      30.04F
NEW PHILLY     CLOUDY    43  38  82 SE5       30.05S
$$



USA.gov is the U.S. government's official web portal to all federal, state and local government web resources and services.